Regional Weather Roundup
Issued by NWS

Home | Current Version | Previous Version | Text Only | Print | Product List | Glossary On
Versions: 1 2 3 4 5 6 7 8 9 10 11 12 13 14 15 16 17 18 19 20 21 22 23 24 25 26 27 28 29 30 31 32 33 34 35 36 37 38 39 40 41 42 43 44 45 46 47 48 49 50
000
ASUS43 KTOP 270159
RWRKS

WEATHER ROUNDUP FOR KANSAS
NATIONAL WEATHER SERVICE GOODLAND KS
800 PM CST MON JAN 26 2015

NOTE:  "FAIR" INDICATES FEW OR NO CLOUDS BELOW 12,000 FEET WITH NO
SIGNIFICANT WEATHER AND/OR OBSTRUCTIONS TO VISIBILITY.

KSZ001>006-013>018-027>032-041>047-270300-
NORTHWEST KANSAS

CITY           SKY/WX    TMP DP  RH WIND       PRES   REMARKS
GOODLAND       CLEAR     45  31  58 SW8       30.16R
HAYS           FAIR      48  27  43 W6        30.08S
HILL CITY      CLEAR     48  28  46 W8        30.09R
RUSSELL        CLEAR     50  31  48 SW5       30.05R
$$

KSZ061>065-074>080-084>089-270300-
SOUTHWEST KANSAS

CITY           SKY/WX    TMP DP  RH WIND       PRES   REMARKS
DODGE CITY     CLEAR     46  28  49 NW9       30.13R
ELKHART          N/A     53  29  39 SW3         N/A
GARDEN CITY    CLEAR     52  30  43 NW9       30.14R
GREAT BEND     CLEAR     45  28  53 W7        30.08R
LIBERAL        CLEAR     46  28  49 W10       30.19R
$$

KSZ066>073-081>083-090>101-270300-
SOUTHEAST KANSAS

CITY           SKY/WX    TMP DP  RH WIND       PRES   REMARKS
CHANUTE        CLEAR     48  35  60 W7        30.02R
COFFEYVILLE    CLEAR     53  36  52 NW3       30.02R
HUTCHINSON     CLEAR     51  32  48 W5        30.05S
MEDICINE LODGE   N/A     53  33  46 N3        30.07R
NEWTON         CLEAR     55  30  38 N6        30.07S
PARSONS        CLEAR     47  35  63 N6        30.02S
WICHITA INTL   CLEAR     54  34  46 NW3       30.04S
WICHITA JABRA  CLEAR     55  33  43 NW6       30.04S
WINFIELD       CLEAR     49  31  49 CALM      30.05R
$$

KSZ007>012-019>026-033>040-048>060-102>105-270300-
NORTHEAST KANSAS

CITY           SKY/WX    TMP DP  RH WIND       PRES   REMARKS
CONCORDIA      CLEAR     53  33  46 NW5       30.04R
EMPORIA        CLEAR     48  33  56 W7        30.02R
LAWRENCE       CLEAR     34  26  72 N5        30.01R
MANHATTAN      CLEAR     43  28  55 W3        30.03R
OLATHE IND     CLEAR     49  31  49 NW6       30.01R
OLATHE EXE     CLEAR     50  32  50 NW5       29.99R
SALINA         CLEAR     50  32  50 CALM      30.05R
TOPEKA BILLARD CLEAR     49  29  46 NW5       30.01S
TOPEKA FORBES  CLEAR     47  28  47 W5        30.01R
$$



USA.gov is the U.S. government's official web portal to all federal, state and local government web resources and services.